TimeEDT,TemperatureF,Dew PointF,Humidity,Sea Level PressureIn,VisibilityMPH,Wind Direction,Wind SpeedMPH,Gust SpeedMPH,PrecipitationIn,Events,Conditions,WindDirDegrees,DateUTC
12:15 AM,46.4,46.4,100,29.93,10.0,SSE,6.9,-,N/A,,Overcast,160,2013-03-18 04:15:00
12:35 AM,46.4,46.4,100,29.92,10.0,SSE,8.1,-,N/A,,Overcast,150,2013-03-18 04:35:00
12:55 AM,46.4,46.4,100,29.92,10.0,SSE,9.2,-,N/A,,Overcast,150,2013-03-18 04:55:00
1:15 AM,46.4,44.6,93,29.92,10.0,SSE,9.2,17.3,N/A,,Overcast,150,2013-03-18 05:15:00
1:35 AM,44.6,44.6,100,29.92,10.0,SSE,12.7,18.4,N/A,,Mostly Cloudy,160,2013-03-18 05:35:00
1:55 AM,44.6,44.6,100,29.92,10.0,SSE,12.7,17.3,N/A,,Scattered Clouds,150,2013-03-18 05:55:00
2:15 AM,44.6,44.6,100,29.92,10.0,SSE,11.5,18.4,N/A,,Clear,150,2013-03-18 06:15:00
2:35 AM,44.6,44.6,100,29.92,10.0,SSE,9.2,-,N/A,,Clear,150,2013-03-18 06:35:00
2:55 AM,44.6,44.6,100,29.92,10.0,SSE,9.2,16.1,N/A,,Clear,150,2013-03-18 06:55:00
3:15 AM,44.6,44.6,100,29.92,10.0,SSE,10.4,17.3,N/A,,Clear,160,2013-03-18 07:15:00
3:35 AM,44.6,44.6,100,29.91,10.0,SSE,11.5,17.3,N/A,,Clear,160,2013-03-18 07:35:00
3:55 AM,44.6,44.6,100,29.92,10.0,South,5.8,-,N/A,,Clear,180,2013-03-18 07:55:00
4:15 AM,44.6,44.6,100,29.92,10.0,SSE,6.9,-,N/A,,Clear,150,2013-03-18 08:15:00
4:35 AM,44.6,44.6,100,29.91,10.0,SSE,13.8,21.9,N/A,,Clear,160,2013-03-18 08:35:00
4:55 AM,44.6,42.8,93,29.90,10.0,SSE,12.7,24.2,N/A,,Clear,160,2013-03-18 08:55:00
5:15 AM,42.8,42.8,100,29.89,10.0,SSE,13.8,20.7,N/A,,Clear,150,2013-03-18 09:15:00
5:35 AM,42.8,42.8,100,29.89,10.0,SSE,11.5,19.6,N/A,,Clear,160,2013-03-18 09:35:00
5:55 AM,42.8,42.8,100,29.89,10.0,SSE,13.8,20.7,N/A,,Scattered Clouds,160,2013-03-18 09:55:00
6:15 AM,42.8,42.8,100,29.88,10.0,SSE,13.8,18.4,N/A,,Scattered Clouds,160,2013-03-18 10:15:00
6:35 AM,42.8,42.8,100,29.88,10.0,SSE,15.0,21.9,N/A,,Scattered Clouds,160,2013-03-18 10:35:00
6:55 AM,42.8,42.8,100,29.87,10.0,SSE,17.3,25.3,N/A,,Clear,160,2013-03-18 10:55:00
7:15 AM,42.8,41.0,93,29.87,10.0,SSE,15.0,26.5,N/A,,Clear,160,2013-03-18 11:15:00
7:35 AM,42.8,41.0,93,29.86,10.0,SSE,17.3,25.3,N/A,,Mostly Cloudy,160,2013-03-18 11:35:00
7:55 AM,42.8,41.0,93,29.86,10.0,SSE,16.1,25.3,N/A,,Mostly Cloudy,160,2013-03-18 11:55:00
8:15 AM,42.8,41.0,93,29.85,10.0,South,16.1,24.2,N/A,,Mostly Cloudy,170,2013-03-18 12:15:00
8:55 AM,44.6,41.0,87,29.86,10.0,SSE,12.7,21.9,N/A,,Overcast,160,2013-03-18 12:55:00
9:15 AM,44.6,41.0,87,29.86,10.0,SSE,16.1,23.0,N/A,,Overcast,160,2013-03-18 13:15:00
9:35 AM,44.6,42.8,93,29.87,10.0,SSE,10.4,-,N/A,Thunderstorm,Mostly Cloudy,150,2013-03-18 13:35:00
9:55 AM,42.8,42.8,100,29.86,7.0,SSE,11.5,17.3,0.01,Rain,Light Rain,160,2013-03-18 13:55:00
10:15 AM,44.6,42.8,93,29.86,10.0,SSE,11.5,17.3,N/A,,Overcast,150,2013-03-18 14:15:00
10:35 AM,46.4,44.6,93,29.85,10.0,SSE,9.2,-,N/A,,Overcast,160,2013-03-18 14:35:00
10:55 AM,48.2,44.6,87,29.86,10.0,SSE,5.8,-,N/A,,Overcast,150,2013-03-18 14:55:00
11:15 AM,50.0,44.6,82,29.85,10.0,SSE,5.8,-,N/A,,Overcast,150,2013-03-18 15:15:00
11:35 AM,51.8,44.6,76,29.88,10.0,South,13.8,21.9,N/A,Rain,Light Rain,190,2013-03-18 15:35:00
11:55 AM,51.8,44.6,76,29.85,10.0,SSE,9.2,-,N/A,Rain,Rain,160,2013-03-18 15:55:00
12:15 PM,50.0,44.6,82,29.86,10.0,SSE,8.1,-,N/A,Rain,Rain,160,2013-03-18 16:15:00
12:35 PM,50.0,46.4,87,29.85,10.0,SSE,8.1,-,N/A,Rain,Light Rain,160,2013-03-18 16:35:00
12:55 PM,50.0,48.2,94,29.84,5.0,South,10.4,-,0.03,Rain-Thunderstorm,Rain,170,2013-03-18 16:55:00
1:15 PM,50.0,48.2,94,29.84,7.0,South,9.2,-,0.02,Rain,Light Rain,190,2013-03-18 17:15:00
1:35 PM,50.0,50.0,100,29.86,5.0,WSW,8.1,-,0.08,Rain,Rain,240,2013-03-18 17:35:00
1:55 PM,50.0,50.0,100,29.88,5.0,SSW,5.8,-,0.12,Rain,Rain,200,2013-03-18 17:55:00
2:15 PM,50.0,50.0,100,29.87,2.0,Calm,Calm,-,0.05,Rain,Heavy Rain,0,2013-03-18 18:15:00
2:35 PM,50.0,50.0,100,29.88,1.8,WNW,4.6,-,0.15,Rain,Heavy Rain,300,2013-03-18 18:35:00
2:55 PM,50.0,50.0,100,29.90,7.0,West,8.1,-,0.19,Rain,Rain,260,2013-03-18 18:55:00
3:15 PM,50.0,50.0,100,29.88,2.0,Calm,Calm,-,0.05,Rain,Heavy Rain,0,2013-03-18 19:15:00
3:35 PM,50.0,50.0,100,29.87,5.0,East,3.5,-,0.08,Rain,Rain,100,2013-03-18 19:35:00
3:55 PM,50.0,50.0,100,29.85,2.5,SE,3.5,-,0.12,Rain-Thunderstorm,Rain,130,2013-03-18 19:55:00
4:15 PM,50.0,50.0,100,29.88,7.0,SSW,6.9,-,0.02,Rain,Rain,200,2013-03-18 20:15:00
4:35 PM,50.0,50.0,100,29.86,7.0,South,6.9,-,0.05,Rain,Rain,180,2013-03-18 20:35:00
4:55 PM,50.0,50.0,100,29.86,7.0,SSW,8.1,-,0.09,Rain-Thunderstorm,Rain,200,2013-03-18 20:55:00
5:15 PM,50.0,50.0,100,29.84,10.0,South,8.1,-,0.02,Rain,Light Rain,190,2013-03-18 21:15:00
5:35 PM,50.0,48.2,94,29.83,10.0,South,5.8,-,0.04,Rain,Rain,170,2013-03-18 21:35:00
5:55 PM,48.2,48.2,100,29.80,10.0,SSE,13.8,18.4,0.05,Rain,Light Rain,150,2013-03-18 21:55:00
6:15 PM,48.2,48.2,100,29.78,10.0,SSE,11.5,17.3,N/A,Rain,Light Rain,160,2013-03-18 22:15:00
6:35 PM,50.0,50.0,100,29.81,10.0,South,11.5,18.4,N/A,,Overcast,170,2013-03-18 22:35:00
6:55 PM,48.2,48.2,100,29.80,10.0,South,10.4,17.3,N/A,,Overcast,170,2013-03-18 22:55:00
7:15 PM,48.2,48.2,100,29.80,10.0,South,9.2,17.3,N/A,,Overcast,180,2013-03-18 23:15:00
7:35 PM,48.2,48.2,100,29.81,10.0,South,16.1,21.9,N/A,,Overcast,190,2013-03-18 23:35:00
8:15 PM,48.2,48.2,100,29.79,10.0,South,11.5,18.4,N/A,,Overcast,180,2013-03-19 00:15:00
8:35 PM,48.2,48.2,100,29.80,10.0,South,12.7,18.4,N/A,,Overcast,190,2013-03-19 00:35:00
8:55 PM,48.2,48.2,100,29.79,10.0,SSW,12.7,-,N/A,,Overcast,200,2013-03-19 00:55:00
9:15 PM,48.2,48.2,100,29.78,10.0,South,8.1,-,N/A,,Scattered Clouds,190,2013-03-19 01:15:00
9:35 PM,48.2,48.2,100,29.79,10.0,SSW,8.1,-,N/A,,Scattered Clouds,200,2013-03-19 01:35:00
9:55 PM,48.2,48.2,100,29.81,10.0,West,4.6,-,N/A,,Mostly Cloudy,260,2013-03-19 01:55:00
10:15 PM,48.2,48.2,100,29.81,10.0,South,5.8,-,N/A,,Overcast,190,2013-03-19 02:15:00
10:35 PM,48.2,48.2,100,29.79,10.0,South,5.8,-,N/A,,Scattered Clouds,180,2013-03-19 02:35:00
10:55 PM,46.4,46.4,100,29.79,10.0,WSW,5.8,-,N/A,,Scattered Clouds,240,2013-03-19 02:55:00
11:15 PM,46.4,46.4,100,29.80,10.0,SW,8.1,-,N/A,,Mostly Cloudy,220,2013-03-19 03:15:00
11:55 PM,48.2,48.2,100,29.81,10.0,South,3.5,-,N/A,,Overcast,190,2013-03-19 03:55:00